Location: Unspecified
(0.0000°N, 0.0000°E)
Time: 20:34:25
(UTC+00:00)

deb Kosmos-1275 - Pass Details

Date: 10 March 2026
Orbit: 936 x 1103 km, 82.9° (Epoch: 11 April)

Event Time Altitude Azimuth Distance (km) Brightness Sun altitude
Rises 05:40:31 0° 158° (SSE) 3,596 ? -7.4°
Reaches altitude 10° 05:43:30 10° 144° (SE) 2,658 ? -6.7°
Maximum altitude 05:48:12 24° 93° (E) 1,882 ? -5.5°
Drops below altitude 10° 05:52:57 10° 42° (NE) 2,707 ? -4.3°
Sets 05:55:59 0° 28° (NNE) 3,678 ? -3.6°
